RH
51 52 51 51 50 49 48 49 49 50 51 56 61 64 65 63 62 62 65 67 69 70 71 72 73 72 70 67 64 62 60 57 54 51 49 47 45 43 40 37 34 34 36 38 41 42 43 44 44 43 43 42 42 41 39 37 37 37 37 36 36 36 37 38 37 35 31 31 32 33 33 32 29 26 23 21 20 21 22 26 30 33 33 33 33 31 29 29 29 29 29 30 31 32 32 33 33 33 33 33 34 35 36
50 52 52 51 50 49 48 48 48 49 53 58 62 65 66 65 64 64 65 66 67 68 69 70 71 71 69 67 66 65 63 61 59 57 55 52 50 47 44 39 36 36 37 39 41 43 44 43 43 43 42 41 40 38 36 35 35 35 34 34 34 35 36 37 35 31 29 31 33 35 36 35 33 30 27 27 26 26 28 29 31 33 33 32 31 30 28 28 28 28 29 29 30 31 32 33 35 35 35 35 36 36 36
49 50 51 51 51 50 50 49 49 50 56 61 64 65 66 66 65 64 64 63 64 65 67 68 69 69 67 66 66 66 65 64 63 62 60 58 55 52 48 44 40 39 39 40 42 43 44 44 43 43 42 41 39 36 34 33 33 33 33 32 32 33 35 37 34 30 30 32 34 36 36 36 34 32 31 31 30 30 31 31 31 31 31 30 29 27 27 27 27 28 28 30 31 33 34 36 37 38 37 37 37 37 37
50 49 49 50 51 52 52 51 50 52 58 62 64 65 66 65 64 62 61 61 62 63 65 67 67 66 64 65 65 65 65 65 65 65 63 62 59 57 53 50 47 44 42 42 43 44 45 45 45 44 43 41 38 36 33 32 32 32 31 30 30 32 34 35 33 31 33 35 35 35 35 35 35 33 32 32 32 32 32 33 32 31 31 29 27 26 25 26 27 28 29 32 34 36 37 38 38 38 38 38 37 37 37
55 51 49 51 52 54 54 52 52 54 58 61 63 64 65 63 61 59 58 60 62 63 64 65 64 63 61 63 64 64 65 66 66 66 65 64 62 59 57 56 54 52 48 47 46 46 46 47 46 45 43 41 38 35 33 32 31 30 29 29 29 29 31 31 30 31 34 35 34 33 32 34 34 33 33 34 34 34 34 33 33 32 31 29 28 27 26 27 29 30 32 34 36 37 38 39 39 39 38 38 37 36 36
58 55 51 52 53 54 55 53 52 53 57 60 62 64 63 62 59 58 58 62 64 64 64 64 62 61 60 61 62 63 65 66 67 67 67 65 63 60 58 58 58 58 54 51 49 48 48 48 48 46 43 40 38 35 33 32 31 30 29 28 27 27 28 27 28 31 34 35 33 32 32 33 35 37 36 35 35 34 34 34 33 32 32 30 28 28 27 28 30 32 34 35 37 38 39 39 38 38 37 36 35 35 34
58 57 54 53 54 55 55 53 52 52 55 58 61 62 62 59 58 57 59 63 64 64 63 62 61 60 60 60 61 63 65 67 68 68 68 66 64 61 60 59 60 60 59 55 53 51 50 50 48 46 44 40 38 35 33 33 32 31 29 26 24 23 23 25 28 31 33 33 31 30 33 36 38 39 37 34 33 34 34 34 33 32 31 29 28 28 28 30 32 34 35 36 36 36 37 37 36 36 35 34 34 33 33
58 58 57 56 56 57 58 56 55 54 54 57 58 59 59 58 57 58 61 63 64 65 65 62 61 60 60 61 62 63 65 67 68 69 68 67 64 63 62 61 60 60 60 58 56 54 53 51 49 46 43 40 37 35 34 35 34 32 28 25 23 22 22 25 28 31 32 31 32 33 35 38 38 37 35 32 32 32 33 33 32 30 28 28 28 29 29 30 31 33 34 34 34 34 34 34 34 34 33 33 33 33 32
57 57 58 58 58 58 59 59 58 57 56 57 58 58 58 60 61 62 62 63 63 64 65 62 61 60 61 62 63 64 66 67 69 69 68 67 65 64 63 62 61 59 60 60 60 58 56 53 50 46 43 40 37 35 35 35 34 31 28 25 24 25 26 27 29 31 34 39 40 38 35 34 34 33 33 31 31 31 32 31 29 28 27 28 29 30 31 31 30 31 31 31 32 32 33 34 34 33 33 33 32 32 32
56 56 57 59 59 59 59 60 60 59 57 57 57 57 59 64 65 64 64 63 62 61 61 60 61 62 63 64 65 66 67 69 69 69 68 67 66 65 64 64 63 62 61 62 62 61 58 55 51 48 44 40 38 36 36 35 33 30 27 27 28 30 31 31 33 37 45 45 42 36 32 31 31 32 32 31 31 30 30 30 29 29 29 29 29 29 30 29 29 29 29 30 31 32 33 33 33 33 32 32 32 31 31
55 56 56 58 59 60 60 59 59 59 58 57 56 57 61 66 67 66 64 61 59 58 58 60 62 64 66 66 67 68 69 69 70 69 69 67 66 65 64 65 66 66 66 66 66 64 61 57 53 49 46 42 38 36 36 34 32 29 26 28 31 33 32 34 38 42 45 40 35 31 30 30 30 31 32 31 31 31 31 31 31 30 28 28 28 28 27 27 27 27 28 29 31 32 33 33 33 32 31 31 31 31 31
54 55 56 57 58 59 60 59 59 60 60 58 58 59 62 66 67 66 64 61 58 56 57 60 64 66 68 68 68 69 69 70 70 69 69 67 66 64 65 66 68 70 71 71 70 68 64 60 56 52 48 43 39 37 35 33 30 28 25 27 31 33 34 37 38 37 35 31 29 28 28 29 30 30 31 31 32 32 32 32 30 28 27 26 25 25 24 25 25 26 28 29 31 32 32 32 32 31 31 30 30 30 29
51 53 55 56 57 58 59 59 59 59 59 60 61 63 64 66 67 67 65 59 55 54 56 62 66 68 69 69 69 69 70 70 70 69 69 67 65 64 64 66 69 72 75 75 75 72 68 63 59 55 51 45 40 37 34 32 29 26 24 26 30 33 34 35 34 32 31 30 28 27 27 28 29 29 30 30 31 31 31 29 26 24 23 25 25 24 22 24 25 27 28 29 31 31 32 31 31 30 30 29 29 29 30
50 51 53 54 56 56 57 58 58 57 57 60 62 64 65 66 67 66 64 57 54 54 59 64 67 70 70 70 69 69 69 70 70 69 68 67 65 64 63 65 68 71 75 77 78 76 71 67 63 59 54 47 42 37 34 31 29 26 23 25 29 32 33 34 34 33 32 32 30 29 27 27 27 27 28 29 29 29 28 25 22 20 21 23 24 23 23 24 26 27 28 29 30 30 30 30 29 29 29 29 30 30 30
48 50 51 52 54 55 56 57 57 57 56 58 62 65 66 66 66 64 61 56 54 57 63 67 70 71 71 70 69 69 69 69 69 68 68 67 65 64 63 64 66 69 73 76 78 77 74 71 68 63 56 49 43 38 34 32 30 27 24 24 27 31 33 34 34 34 34 33 32 31 29 27 26 25 26 27 27 26 23 21 19 19 21 22 23 23 24 25 27 28 28 28 29 29 29 28 28 28 28 28 29 30 30
46 48 50 51 52 53 54 55 56 57 56 58 61 64 65 64 63 61 59 54 55 59 65 69 72 73 72 71 70 69 69 70 69 68 68 67 65 63 62 62 65 67 71 74 75 76 75 74 71 66 59 52 46 40 36 33 31 28 25 25 27 30 32 33 34 34 35 34 34 32 30 27 25 25 26 26 24 22 20 19 19 20 22 22 23 24 26 27 27 27 27 27 27 27 27 27 27 27 28 28 28 29 29
43 46 48 49 50 51 53 54 56 57 58 60 62 63 62 60 59 58 57 56 57 61 65 70 73 74 74 72 71 70 70 70 70 69 68 67 66 63 61 61 63 66 69 72 73 74 74 75 73 68 61 54 48 43 38 35 33 30 27 25 26 28 31 32 34 34 35 34 33 31 28 25 24 24 25 23 22 20 20 20 21 23 23 23 24 25 26 26 26 26 25 25 26 26 27 27 27 27 28 28 28 29 29
40 43 45 47 49 50 52 53 55 57 60 62 63 63 62 59 58 58 59 59 61 63 65 70 73 74 75 74 72 71 71 71 71 70 69 68 66 64 62 62 63 65 68 70 71 72 73 74 73 68 61 56 50 44 39 37 34 31 28 25 25 26 28 31 32 33 33 32 31 29 26 25 24 24 23 22 21 21 21 22 24 25 25 25 25 25 25 25 25 24 24 24 24 25 26 27 27 27 28 28 28 28 28
38 39 42 44 47 50 52 53 54 56 60 63 65 65 64 61 61 61 61 62 64 65 65 68 70 72 74 75 74 72 71 72 72 72 71 69 67 64 62 62 63 64 66 68 70 71 72 73 71 67 61 56 50 45 41 38 35 31 27 25 24 25 28 29 30 31 30 28 27 26 25 24 24 23 23 22 22 22 23 24 25 25 25 24 24 24 24 23 23 22 22 22 23 23 24 25 26 26 27 28 28 27 27
36 37 39 41 45 48 52 52 54 56 59 63 66 68 68 66 64 64 64 64 66 67 66 68 70 72 74 75 74 72 71 72 73 73 73 70 67 65 63 63 63 64 65 67 69 70 71 71 69 65 60 55 50 46 42 39 35 30 26 25 26 26 28 29 29 29 28 26 25 24 23 23 23 23 23 22 22 22 23 23 23 24 24 24 23 23 22 22 21 21 21 21 21 22 23 24 24 25 26 26 26 26 26
36 36 37 39 43 47 50 51 54 57 59 64 67 69 71 69 68 67 66 67 68 69 69 70 72 73 74 74 73 71 70 70 71 72 72 70 67 65 64 64 64 64 65 67 68 69 70 69 67 63 59 54 50 46 44 40 35 30 26 27 27 28 29 29 29 28 28 26 25 24 22 22 23 24 24 22 22 22 22 22 22 23 22 22 22 21 21 21 20 20 20 20 20 21 22 23 23 24 24 25 25 25 24
36 36 36 38 41 44 48 51 54 58 60 64 67 70 72 72 71 70 69 70 71 71 71 72 73 73 73 72 72 71 70 68 69 69 70 69 67 66 65 65 65 65 65 66 68 69 69 68 66 62 57 54 50 47 45 41 36 31 28 29 29 28 29 30 29 28 29 28 26 24 23 23 24 25 24 22 21 21 21 21 22 22 22 22 22 22 22 21 21 21 22 21 21 21 21 22 23 23 23 24 23 23 22
35 36 36 37 39 43 47 52 56 59 61 65 68 71 73 73 73 73 74 75 75 74 72 72 72 72 71 71 72 71 69 67 66 66 67 68 68 68 67 67 66 66 65 66 67 68 69 68 65 62 57 53 51 48 46 42 37 32 31 32 31 29 29 29 29 29 30 28 27 26 26 25 25 25 23 20 18 18 19 20 21 22 23 23 24 24 24 24 24 24 24 24 24 23 22 22 22 22 22 22 22 21 20
35 36 36 38 40 43 47 54 57 60 63 66 69 73 74 75 75 76 79 80 79 77 74 72 71 71 72 72 72 71 69 66 65 65 66 67 68 69 69 69 68 67 65 65 66 67 68 67 65 61 57 53 51 49 47 42 37 34 34 35 33 30 29 30 30 31 31 29 28 28 28 26 25 24 21 18 16 16 17 19 20 22 23 24 25 25 26 27 27 27 28 27 27 25 24 23 22 21 21 21 21 20 20
34 35 36 38 42 46 48 53 58 61 66 68 71 74 76 77 77 78 82 82 81 79 76 74 73 73 73 73 72 71 69 67 66 65 64 65 67 69 70 70 69 67 66 65 65 66 66 66 64 61 57 53 51 49 47 43 38 35 36 36 35 32 31 31 31 32 32 30 29 29 28 27 25 23 20 18 16 15 15 16 18 20 22 24 25 26 27 28 29 29 29 29 29 28 26 25 23 22 21 21 20 20 20
34 35 35 38 43 47 50 54 59 65 70 71 73 76 78 80 81 81 83 83 81 79 78 77 76 76 76 75 74 72 70 68 67 65 63 64 66 69 70 70 70 68 66 66 66 66 66 65 63 60 57 54 51 49 47 43 40 37 36 37 36 34 33 33 32 32 32 31 31 30 29 27 25 23 20 18 16 14 13 14 16 18 21 23 24 26 27 28 29 29 30 30 30 30 28 27 25 23 21 20 20 20 21
32 34 35 37 42 49 54 58 64 70 73 73 75 78 79 82 83 84 84 82 81 80 79 78 78 78 77 76 75 74 72 70 68 65 62 63 66 69 71 70 69 68 67 67 66 66 66 65 63 60 56 53 51 50 47 44 42 39 37 39 37 35 35 35 34 33 32 31 31 31 30 28 25 23 20 17 15 14 13 13 14 16 18 20 22 25 26 28 29 30 30 31 31 31 31 29 27 25 23 21 20 20 21
31 34 34 37 43 51 60 65 69 72 74 75 77 79 79 83 84 84 84 82 81 80 80 80 79 79 78 77 76 75 73 71 68 65 62 63 66 69 70 69 69 68 68 68 67 67 66 66 64 60 56 53 51 49 47 45 44 42 40 41 38 37 37 37 35 33 32 31 32 31 30 28 25 22 19 16 14 13 13 14 14 15 16 18 20 22 25 27 28 30 30 31 32 32 32 32 30 28 25 23 21 20 21
31 34 34 38 47 56 62 67 70 72 74 75 77 78 79 81 82 82 82 81 81 81 80 80 80 79 78 77 76 75 74 72 69 65 62 64 66 68 69 69 68 68 68 69 69 68 68 67 64 61 56 52 50 48 47 46 46 45 44 43 41 39 37 37 35 33 31 31 31 31 30 27 25 22 20 17 15 15 15 16 16 17 17 18 19 21 23 25 27 29 31 32 32 33 34 33 32 31 29 26 23 22 21
32 35 35 41 49 57 61 65 69 72 74 78 79 80 83 83 81 80 80 79 80 80 80 80 80 78 77 76 76 75 74 72 69 66 64 65 66 68 68 68 67 67 68 70 70 70 69 68 65 61 56 53 50 48 47 47 47 47 47 44 42 40 38 36 34 32 31 30 30 30 29 27 25 23 21 19 18 18 19 20 20 21 21 20 20 21 22 24 26 29 31 32 33 34 34 34 34 33 32 29 27 25 23
32 35 35 40 47 53 57 61 66 69 73 77 80 84 90 87 82 77 77 77 77 78 79 80 79 78 77 76 76 75 74 71 68 66 64 65 66 67 67 67 67 67 68 69 71 71 70 68 65 61 56 53 50 48 47 47 47 47 47 43 41 40 40 36 33 31 31 30 30 29 29 27 25 24 22 21 20 20 21 23 24 25 25 24 23 22 22 24 26 28 30 32 33 34 34 34 35 35 34 33 31 29 26
30 35 37 39 43 48 52 55 60 66 70 74 78 83 89 88 81 75 75 76 76 76 77 78 78 77 76 76 76 75 73 70 68 65 64 64 65 66 66 66 65 66 66 69 71 72 71 69 65 61 56 53 50 47 47 47 47 46 44 41 39 39 40 36 33 31 30 29 29 28 28 26 25 24 23 22 22 22 23 25 27 28 29 28 26 24 24 25 27 29 30 32 34 34 34 35 35 35 36 36 34 33 30
29 34 38 38 41 44 46 50 55 61 66 70 76 83 89 86 79 73 74 76 76 76 76 76 76 76 76 76 76 75 73 70 67 64 62 63 64 65 65 65 64 64 65 68 71 72 71 69 65 61 56 52 49 47 47 48 48 46 43 40 39 38 39 37 33 31 29 29 28 28 28 26 25 24 23 23 24 24 26 27 28 29 31 30 29 27 25 25 26 27 30 32 34 35 35 35 35 36 37 37 37 36 34
28 33 37 38 39 40 43 47 52 57 63 66 76 86 91 85 77 72 73 75 77 77 78 77 76 76 76 77 77 76 74 70 67 64 62 63 64 64 65 65 64 63 64 68 71 72 72 69 65 61 56 52 49 47 47 49 48 45 42 40 38 38 38 36 33 30 28 28 28 27 27 26 26 25 24 24 25 26 27 28 29 30 32 32 31 29 27 25 25 26 28 31 33 35 35 36 36 37 38 38 39 38 37
27 31 36 38 39 40 41 45 51 57 62 64 74 85 90 83 77 72 73 75 76 77 78 78 78 78 78 78 78 77 75 71 68 64 62 63 64 65 65 65 64 63 64 68 71 72 71 69 65 61 56 52 49 47 47 48 48 45 43 40 39 38 36 34 31 29 29 28 28 27 27 27 26 25 25 25 26 27 29 29 30 31 33 33 33 31 29 27 25 26 27 30 33 35 36 36 37 37 38 39 40 40 39
25 30 35 38 40 41 42 46 52 58 62 64 69 75 82 79 76 73 72 73 75 77 78 78 79 79 79 79 79 78 76 72 69 65 63 63 64 65 66 65 64 63 64 68 71 72 71 69 65 61 57 53 49 46 46 47 47 45 43 41 39 37 35 33 31 29 28 28 27 27 27 27 26 25 25 25 27 29 30 31 31 32 33 34 34 33 31 28 27 26 27 29 32 34 36 37 37 38 39 40 41 41 41
23 29 34 37 39 41 44 49 55 59 62 64 66 70 74 75 74 72 70 70 72 74 76 78 80 81 81 81 80 79 77 73 70 67 65 64 65 66 67 66 64 64 65 68 70 71 70 69 65 62 57 54 50 46 45 45 46 46 45 42 40 37 35 33 31 29 28 28 27 27 26 26 26 25 25 26 28 30 31 32 33 34 35 35 35 35 33 30 28 27 27 29 32 34 36 37 38 39 40 41 42 42 42
21 27 32 36 39 41 44 52 57 60 61 63 64 66 71 73 72 70 68 68 69 72 75 78 80 81 81 81 80 79 78 75 71 68 66 65 66 67 68 67 66 65 66 68 69 70 70 68 66 62 58 55 51 47 44 44 45 46 48 46 42 38 35 33 31 29 28 28 27 27 26 26 26 26 26 28 29 31 33 34 35 36 36 37 37 36 35 32 29 28 28 30 32 34 36 37 38 39 40 42 42 43 43
19 25 31 35 38 40 43 51 56 60 61 62 61 61 66 70 71 69 67 66 68 71 74 78 80 81 81 80 80 80 79 76 73 71 68 67 67 69 70 69 67 66 66 68 69 70 69 68 66 63 60 56 52 48 45 44 45 46 48 46 43 39 36 33 31 29 28 28 27 27 27 27 27 27 28 29 30 32 34 35 36 37 37 38 38 38 37 34 31 29 29 30 32 35 37 38 39 40 41 42 43 44 43
17 23 29 34 37 39 42 49 55 60 62 62 61 60 62 67 70 70 68 67 69 72 76 79 80 81 80 80 79 79 79 77 75 73 70 69 69 70 70 70 69 68 67 68 69 69 69 68 66 64 61 57 53 49 45 44 45 47 47 45 43 40 38 34 32 31 30 29 28 28 28 28 29 29 30 30 32 33 35 36 37 38 38 39 40 40 39 36 33 30 29 31 33 35 37 38 40 41 42 43 44 44 43
15 20 27 33 37 40 42 47 54 60 62 63 63 62 61 66 69 71 71 69 71 75 79 81 81 80 80 79 79 78 79 77 76 73 71 70 70 71 72 71 70 69 68 68 69 69 68 68 67 65 62 58 54 50 46 44 44 46 47 44 41 39 37 36 35 36 36 33 31 30 30 30 31 31 31 32 33 34 36 37 38 39 39 40 41 41 41 38 35 32 30 32 33 36 38 39 40 42 43 44 45 44 43
13 18 25 32 37 41 43 47 53 59 62 64 64 64 63 64 68 72 73 73 75 78 82 82 81 80 80 79 78 78 79 77 76 74 71 71 72 72 72 72 71 70 68 68 68 68 68 68 67 66 63 60 56 52 47 44 44 45 46 43 41 38 37 39 41 42 42 38 35 32 32 32 32 32 33 33 34 36 37 38 39 39 39 40 41 42 42 40 36 33 31 33 34 36 38 40 41 43 44 45 45 44 42
12 16 23 31 38 42 44 47 53 59 62 64 66 66 65 63 65 70 74 76 78 81 83 83 83 82 81 80 79 78 79 78 76 74 72 72 72 73 73 72 71 70 68 67 67 67 67 67 67 66 64 61 57 53 48 45 44 44 46 43 40 38 39 43 45 45 45 40 36 34 33 33 33 33 34 34 35 37 38 39 40 40 40 41 42 43 44 41 37 34 32 33 35 37 39 41 42 44 45 46 46 44 42
11 14 20 30 38 43 46 48 53 58 63 65 67 67 67 63 64 67 72 76 80 82 83 83 84 83 82 80 79 78 78 77 76 74 72 72 73 74 73 71 70 69 68 66 66 66 66 67 67 66 64 61 58 53 49 45 44 44 45 43 40 39 39 43 45 46 43 40 37 35 34 34 34 34 35 36 37 38 40 40 41 41 41 42 43 44 45 42 38 35 33 34 36 38 40 42 43 45 46 46 46 43 40
10 12 18 28 36 43 47 49 52 56 60 64 65 66 67 64 63 65 69 74 79 82 83 83 83 84 82 81 79 79 78 78 76 74 73 73 74 74 73 71 69 68 67 66 65 65 65 66 67 67 65 62 58 54 49 46 45 45 45 44 42 40 39 41 43 43 41 39 37 36 36 35 36 36 37 38 39 40 41 41 42 41 41 42 43 45 46 42 38 35 34 34 36 39 41 42 44 45 47 47 45 42 38
9 11 15 25 35 43 48 50 51 53 57 60 63 65 66 64 64 64 67 71 75 78 81 82 83 83 82 81 80 80 80 79 77 75 74 75 75 75 74 71 69 67 66 65 65 65 65 67 67 67 66 63 59 55 50 46 45 45 46 45 43 42 41 41 42 42 41 39 38 37 37 37 37 38 39 40 40 41 42 43 43 42 42 43 45 46 47 43 39 36 34 35 37 40 42 43 45 46 47 47 44 40 35
8 10 13 23 33 42 48 50 50 51 53 57 61 63 64 63 64 65 66 68 71 75 79 81 82 82 82 80 80 80 80 79 77 76 75 76 77 76 75 71 69 68 67 65 65 65 65 67 67 68 68 65 61 55 51 47 44 44 45 45 44 43 43 43 43 42 41 40 39 38 38 38 38 39 41 41 42 43 44 44 44 43 42 43 46 48 47 43 39 36 35 36 38 40 42 44 46 47 48 46 42 38 33
8 8 11 21 31 41 48 49 50 51 52 56 59 62 63 62 62 63 65 66 69 73 77 79 80 81 81 79 79 79 79 78 77 76 76 77 78 78 76 73 70 68 67 66 65 65 66 67 68 68 69 66 62 57 52 47 45 43 43 44 44 44 44 44 44 42 41 40 39 38 37 38 39 40 42 43 44 45 46 45 44 43 42 45 47 49 47 43 39 37 35 37 39 41 43 45 47 49 48 45 40 36 32
8 7 9 18 29 39 46 49 50 51 52 55 58 60 62 61 61 62 65 67 70 73 76 78 79 80 80 79 78 77 77 77 76 76 76 79 81 81 78 75 71 68 66 66 66 66 66 66 68 69 70 67 63 58 53 49 46 44 43 43 43 43 43 44 43 42 41 40 39 37 37 37 39 41 44 45 46 46 47 46 44 43 43 46 49 50 47 43 39 37 36 37 39 42 45 47 49 49 48 43 39 34 32
8 7 8 16 27 37 44 48 50 51 52 54 55 58 61 61 61 62 65 69 72 74 76 77 78 79 79 79 78 77 76 75 75 76 78 81 83 83 81 76 72 69 65 65 66 67 67 67 69 70 71 68 64 60 55 51 48 46 45 44 44 44 43 43 42 41 40 39 38 37 37 38 40 42 45 46 47 47 47 45 44 44 45 49 51 50 47 43 39 37 36 38 40 43 46 49 50 49 46 42 38 34 32
9 7 6 14 24 34 42 47 50 51 52 52 53 56 61 61 62 63 66 71 74 75 76 77 78 78 80 80 80 78 76 74 74 77 83 84 83 81 80 76 72 69 67 65 65 67 68 69 71 72 73 69 66 62 57 53 50 48 48 48 47 47 46 44 43 41 40 39 38 38 39 40 41 44 47 48 48 48 46 45 44 45 48 51 52 50 46 42 38 36 37 39 42 45 48 50 51 49 45 41 37 35 33
11 7 6 11 21 31 39 45 49 51 52 52 52 55 60 61 62 63 66 71 74 76 76 77 78 78 80 81 81 79 77 75 76 80 85 86 83 80 77 75 71 67 66 68 68 67 69 71 74 75 74 70 67 63 60 55 52 50 50 50 50 49 48 47 45 43 41 40 39 40 41 42 44 46 49 49 49 48 46 45 45 47 50 52 51 49 44 40 38 37 38 40 43 47 50 52 51 48 44 40 37 35 34
13 9 6 10 18 27 35 42 47 51 52 51 52 54 59 61 62 64 66 70 74 76 77 77 77 78 79 81 81 80 79 78 82 87 91 88 84 81 78 75 71 67 65 68 70 70 70 74 76 77 75 71 68 65 61 57 53 51 51 51 51 50 49 47 45 44 42 41 41 42 43 45 46 48 50 50 49 48 46 45 47 49 52 52 51 47 43 39 38 37 39 42 45 49 52 52 50 47 43 39 36 35 34
15 10 6 8 15 23 31 39 46 50 52 51 52 54 59 61 62 64 66 70 74 77 79 78 77 77 78 80 81 81 80 81 85 90 91 88 85 82 80 75 71 68 68 70 72 73 73 77 78 78 74 71 68 65 61 57 54 52 51 51 51 50 50 48 46 44 42 43 43 44 46 48 50 51 52 51 49 47 46 46 48 51 53 52 49 45 41 39 38 39 41 44 47 50 53 52 50 46 42 38 36 34 34
16 12 7 8 13 20 27 37 44 49 51 51 52 55 59 61 63 64 66 70 74 78 79 78 77 77 77 79 80 80 80 81 86 91 91 89 85 82 81 78 74 72 71 71 73 75 77 78 79 78 74 71 68 65 61 57 54 52 51 50 50 49 49 47 46 45 44 45 46 48 50 51 52 53 53 51 49 47 46 47 49 51 52 51 48 44 40 39 39 40 42 46 49 52 53 52 48 44 39 36 34 34 35
18 13 9 8 11 17 23 35 42 47 51 52 54 57 60 62 63 64 66 70 74 76 77 77 77 76 77 79 80 81 80 82 86 90 91 90 89 87 84 81 77 75 73 74 74 76 78 78 78 76 73 70 67 63 59 56 54 52 50 49 48 48 47 46 46 46 47 49 50 52 53 54 54 54 53 51 49 47 46 48 50 52 52 50 47 43 40 40 40 42 44 47 50 52 53 50 46 42 37 35 34 35 35
19 15 10 8 10 14 20 34 42 46 50 52 55 58 61 62 63 65 67 70 73 75 76 76 76 76 77 79 80 81 81 82 86 89 90 91 92 91 88 81 76 73 73 74 77 78 79 77 75 74 71 67 64 61 57 55 53 52 50 49 48 47 47 46 47 48 50 52 54 54 55 55 55 54 52 50 48 47 46 48 50 52 51 49 46 43 41 41 42 43 45 49 52 53 52 49 44 39 35 35 35 35 36
20 15 11 9 9 12 17 29 39 46 49 52 55 57 60 62 64 65 67 70 72 74 75 75 75 76 76 78 80 80 81 84 86 88 89 91 92 92 90 81 75 72 72 74 76 77 78 76 74 72 69 65 62 59 56 54 52 51 50 49 48 48 47 48 49 50 52 54 55 56 56 55 54 52 50 48 46 45 46 49 51 52 51 49 46 44 42 42 42 44 47 50 52 53 51 46 41 37 35 35 35 36 36
20 16 12 10 10 11 16 25 36 44 48 51 54 56 58 61 64 66 67 69 71 73 75 75 75 75 76 79 81 83 84 85 85 86 87 91 92 92 90 82 76 73 73 74 75 75 75 76 74 72 69 65 61 58 56 54 52 50 50 49 48 48 48 49 50 51 53 54 55 56 55 54 52 50 47 45 44 44 47 50 52 52 51 49 46 43 42 42 43 46 49 52 53 52 49 44 40 37 35 35 36 36 36
21 17 13 10 10 11 15 23 34 43 46 50 52 54 55 58 62 65 67 68 70 72 74 75 75 75 76 81 85 88 90 88 85 84 87 90 92 92 91 83 77 73 73 75 76 75 73 73 73 72 69 65 60 56 54 53 52 51 50 49 49 49 49 49 50 51 52 53 54 54 53 51 49 47 44 43 44 46 49 51 52 52 51 48 45 43 42 43 45 48 52 54 53 51 47 42 38 36 36 36 36 36 35
21 17 13 11 10 11 15 23 32 40 45 49 51 52 53 55 59 63 66 68 69 71 73 74 75 76 77 84 89 92 91 89 86 85 89 91 92 92 91 84 77 73 72 75 76 76 73 70 69 68 66 62 58 55 52 51 51 50 50 50 50 50 50 50 49 50 50 51 51 51 50 48 46 45 43 44 46 48 51 52 52 51 49 46 44 42 42 44 47 51 54 55 53 50 44 40 38 37 36 36 36 36 36